Location: Chateh
(58.6667°N, 118.6000°W)
Time: 07:05:19
(UTC+00:00)

PCSat - Pass Details

Date: 12 December 2023
Orbit: 784 x 792 km, 67.0° (Epoch: 04 March)

Event Time Altitude Azimuth Distance (km) Brightness Sun altitude
Exits shadow 10:36:15 14° 59° (ENE) 2,115 12.3 -43.6°
Drops below altitude 10° 10:36:58 10° 55° (NE) 2,362 12.6 -43.5°
Sets 10:39:32 0° 47° (NE) 3,297 13.6 -43.3°
